This demonstration page uses our WeatherBlox Daily Observations layout. Learn more.

Left ArrowRight Arrow

47.50024, -111.30081

Hourly Observations for May 18, 2021

Temp ( °F °C ) Dew Point ( °F °C ) Humidity (%) Winds ( mph kmh ) Pressure ( in mb ) Visibility ( mi km ) Precip ( " mm )
12:53 am 00:53 Clear 53 11.7 38 3.3 57 57 SW 8 13 29.67 1005 10 16 0.00 0.00
1:53 am 01:53 Clear 52 11.1 37 2.8 57 57 SW 8 13 29.66 1004 10 16 0.00 0.00
2:53 am 02:53 Clear 54 12.2 36 2.2 51 51 SSW 7 11 29.65 1004 10 16 0.00 0.00
3:53 am 03:53 Mostly Clear 49 9.4 39 3.9 69 69 WNW 8 13 29.66 1004 10 16 0.00 0.00
4:53 am 04:53 Clear 46 7.8 38 3.3 73 73 S 9 15 29.66 1004 10 16 0.00 0.00
5:53 am 05:53 Mostly Sunny 48 8.9 39 3.9 71 71 WSW 9 15 29.67 1005 10 16 0.00 0.00
6:53 am 06:53 Sunny 50 10 40 4.4 68 68 SW 8 13 29.67 1005 10 16 0.00 0.00
7:53 am 07:53 Sunny 60 15.6 40 4.4 47 47 SW 8 13 29.67 1005 10 16 0.00 0.00
8:53 am 08:53 Sunny 65 18.3 39 3.9 39 39 W 9 15 29.68 1005 10 16 0.00 0.00
9:53 am 09:53 Sunny 68 20 37 2.8 32 32 WSW 21 33 29.69 1005 10 16 0.00 0.00
10:53 am 10:53 Sunny 70 21.1 38 3.3 31 31 WSW 20 31 29.69 1005 10 16 0.00 0.00
11:53 am 11:53 Sunny 72 22.2 37 2.8 28 28 WSW 24 39 29.68 1005 10 16 0.00 0.00
12:53 pm 12:53 Sunny 72 22.2 35 1.7 26 26 W 31 50 29.67 1005 8 13 0.00 0.00
1:53 pm 13:53 Sunny 72 22.2 34 1.1 25 25 W 29 46 29.67 1005 7 11 0.00 0.00
2:53 pm 14:53 Sunny 71 21.7 31 -0.6 23 23 W 31 50 29.67 1005 9 14 0.00 0.00
3:53 pm 15:53 Sunny 69 20.6 31 -0.6 24 24 W 30 48 29.70 1006 10 16 0.00 0.00
4:53 pm 16:53 Sunny 65 18.3 29 -1.7 26 26 W 28 44 29.71 1006 10 16 0.00 0.00
5:53 pm 17:53 Sunny 64 17.8 28 -2.2 26 26 W 26 43 29.73 1007 10 16 0.00 0.00
6:53 pm 18:53 Sunny 63 17.2 25 -3.9 24 24 W 21 33 29.74 1007 10 16 0.00 0.00
7:53 pm 19:53 Sunny 62 16.7 17 -8.3 17 17 W 17 28 29.76 1008 10 16 0.00 0.00
8:53 pm 20:53 Sunny 57 13.9 18 -7.8 22 22 WNW 10 17 29.79 1009 10 16 0.00 0.00
9:53 pm 21:53 Clear 54 12.2 17 -8.3 23 23 WNW 10 17 29.82 1010 10 16 0.00 0.00
10:53 pm 22:53 Clear 52 11.1 17 -8.3 25 25 WNW 7 11 29.85 1011 10 16 0.00 0.00
11:53 pm 23:53 Mostly Clear 51 10.6 19 -7.2 28 28 NW 5 7 29.86 1011 10 16 0.00 0.00

Powered by AerisWeather